Tracking 20721 objects as of 1-Jun-2020
HD Live streaming from Space Station
objects crossing your sky now

FENGYUN 1C DEB

Track FENGYUN 1C DEB now!
10-day predictions


NORAD ID: 36734
Int'l Code: 1999-025EBG
Perigee: 830.5 km
Apogee: 891.5 km
Inclination: 99.1 °
Period: 102.0 minutes
Semi major axis: 7232 km
RCS: 0.0055 m2 (small)
Launch date: May 10, 1999
Source: People's Republic of China (PRC)
Launch site: Taiyaun Space Center, China (TSC)

Note: This is SATELLITE DEBRIS
aabbcc
Your satellite tracking list
Your tracking list is empty




NASA's NSSDC Master Catalog

Two Line Element Set (TLE):
1 36734U 99025EBG 20151.38670741 +.00000530 +00000-0 +31396-3 0  9996
2 36734 099.0583 128.9922 0042199 182.1205 177.9793 14.11608214541063
Source of the keplerian elements: AFSPC